Weather History for PABT - October, 2013

Change the Weather History Date:

Wednesday, October 9, 2013

  Actual Average Record
Temperature  
Mean Temperature 29 °F -  
Max Temperature 34 °F 32 °F 46 °F (2006)
Min Temperature 24 °F 20 °F -2 °F (1988)
Degree Days  
Heating Degree Days 36    
Moisture  
Dew Point 29 °F    
Average Humidity 93    
Maximum Humidity 96    
Minimum Humidity 87    
Precipitation  
Precipitation 0.00 in - - ()
Snow  
Snow 0.00 in - - ()
Snow Depth 3.00 in    
Sea Level Pressure  
Sea Level Pressure 29.29 in    
Wind  
Wind Speed 3 mph (South)    
Max Wind Speed 9 mph    
Max Gust Speed -    
Visibility 9 miles    
Events Fog , Snow    
Averages and records for this station are not official NWS values.
T = Trace of Precipitation, MM = Missing Value Source: NWS Daily Summary

Daily Weather History Graph

Daily Weather History Graph

Search for Another Location

Airport or City:

Trip Planner

Search our weather history database for the weather conditions in past years. The results will help you decide how hot, cold, wet, or windy it might be!

Date:

Astronomy

Oct. 09, 2013 Rise Set
Actual Time 8:46 AM AKDT 6:58 PM AKDT
Civil Twilight 7:53 AM AKDT 7:51 PM AKDT
Nautical Twilight 6:51 AM AKDT 8:53 PM AKDT
Astronomical Twilight 5:45 AM AKDT 9:57 PM AKDT
Moon 4:00 PM AKDT (10/9) 8:36 PM AKDT (10/9)
Length of Visible Light 11h 58m
Length of Day
10h 11m
Waxing Crescent, 27% of the Moon is Illuminated
Oct 9
Waxing Crescent
Oct 11
First Quarter
Oct 18
Full
Oct 26
Last Quarter
Nov 3
New

Hourly Weather History & Observations

Time (AKDT) Temp. Windchill Dew Point Humidity Pressure Visibility Wind Dir Wind Speed Gust Speed Precip Events Conditions
12:12 AM 30.2 °F 26.7 °F 28.4 °F 93% 29.06 in 2.5 mi NNE 3.5 mph - N/A Snow Light Snow
12:34 AM 30.2 °F 25.4 °F 28.4 °F 93% 29.06 in 4.0 mi NNE 4.6 mph - N/A Snow Light Snow
12:53 AM 30.9 °F 26.2 °F 28.9 °F 92% 29.10 in 5.0 mi NNE 4.6 mph - N/A Snow Light Snow
1:00 AM 30.2 °F 25.4 °F 28.4 °F 93% 29.06 in 6.0 mi NNE 4.6 mph - N/A Snow Light Snow
1:53 AM 30.0 °F - 28.9 °F 96% 29.11 in 9.0 mi Calm Calm - N/A   Overcast
2:07 AM 30.2 °F 26.7 °F 28.4 °F 93% 29.07 in 10.0 mi NW 3.5 mph - N/A   Overcast
2:53 AM 30.0 °F - 28.0 °F 92% 29.11 in 10.0 mi Calm Calm - N/A   Overcast
3:53 AM 30.0 °F - 28.9 °F 96% 29.12 in 10.0 mi Calm Calm - N/A   Overcast
4:53 AM 30.0 °F - 28.9 °F 96% 29.14 in 10.0 mi Calm Calm - N/A   Overcast
5:53 AM 28.9 °F - 28.0 °F 96% 29.16 in 10.0 mi Calm Calm - N/A   Overcast
6:15 AM 28.4 °F - 26.6 °F 93% 29.13 in 10.0 mi Calm Calm - N/A   Overcast
6:53 AM 30.0 °F - 28.0 °F 92% 29.18 in 10.0 mi Calm Calm - N/A   Overcast
7:44 AM 28.4 °F - 26.6 °F 93% 29.15 in 10.0 mi Calm Calm - N/A   Overcast
7:53 AM 28.0 °F - 27.0 °F 96% 29.20 in 10.0 mi Calm Calm - N/A   Overcast
8:53 AM 24.1 °F - 23.0 °F 96% 29.22 in 10.0 mi Calm Calm - N/A Fog Scattered Clouds
9:29 AM 26.6 °F - 24.8 °F 93% 29.20 in 10.0 mi Calm Calm - N/A Fog Patches of Fog
9:53 AM 27.0 °F - 26.1 °F 96% 29.25 in 10.0 mi Calm Calm - N/A Fog Patches of Fog
10:17 AM 28.4 °F - 26.6 °F 93% 29.22 in 10.0 mi Calm Calm - N/A Fog Patches of Fog
10:53 AM 28.9 °F - 28.0 °F 96% 29.27 in 8.0 mi Calm Calm - N/A Fog Patches of Fog
11:53 AM 30.9 °F - 30.0 °F 96% 29.30 in 10.0 mi Calm Calm - N/A Fog Patches of Fog
12:53 PM 32.0 °F - 30.0 °F 92% 29.34 in 10.0 mi Calm Calm - N/A Fog Patches of Fog
1:53 PM 33.1 °F 28.7 °F 30.9 °F 92% 29.36 in 10.0 mi South 4.6 mph - N/A Snow Light Snow
2:53 PM 33.1 °F 27.7 °F 30.9 °F 92% 29.39 in 10.0 mi SSW 5.8 mph - N/A   Overcast
3:53 PM 34.0 °F 28.0 °F 32.0 °F 92% 29.41 in 8.0 mi South 6.9 mph - N/A   Overcast
4:53 PM 34.0 °F 28.0 °F 32.0 °F 92% 29.43 in 8.0 mi South 6.9 mph - N/A   Overcast
5:53 PM 34.0 °F 28.0 °F 32.0 °F 92% 29.45 in 8.0 mi SSW 6.9 mph - N/A   Mostly Cloudy
6:53 PM 34.0 °F 29.8 °F 32.0 °F 92% 29.47 in 8.0 mi SSW 4.6 mph - N/A   Overcast
6:56 PM 33.8 °F 28.6 °F 32.0 °F 93% 29.43 in 8.0 mi South 5.8 mph - N/A   Overcast
6:58 PM 33.8 °F 29.6 °F 32.0 °F 93% 29.43 in 8.0 mi SSW 4.6 mph - N/A   Overcast
7:53 PM 33.1 °F 27.7 °F 30.9 °F 92% 29.49 in 10.0 mi SSW 5.8 mph - N/A   Mostly Cloudy
8:26 PM 33.8 °F 28.6 °F 30.2 °F 87% 29.46 in 10.0 mi South 5.8 mph - N/A   Mostly Cloudy
8:53 PM 33.1 °F 26.9 °F 30.9 °F 92% 29.51 in 10.0 mi South 6.9 mph - N/A   Mostly Cloudy
9:53 PM 32.0 °F 27.5 °F 30.0 °F 92% 29.54 in 10.0 mi South 4.6 mph - N/A   Overcast
10:53 PM 32.0 °F 26.4 °F 30.9 °F 96% 29.55 in 5.0 mi South 5.8 mph - N/A Snow Light Snow
11:53 PM 32.0 °F 24.2 °F 30.9 °F 96% 29.57 in 10.0 mi SSW 9.2 mph - N/A   Overcast